Home   Weather   Fortaleza   Past weeks

Flag for Brazil Past Weather in Fortaleza, Ceará, Brazil — Yesterday and Last 2 Weeks

Now
81 °F

Passing clouds.


Feels Like: 86 °F
Forecast: 79 / 86 °F
Wind: 8 mph from East

Location: Fortaleza Aeropor-To

Current Time: Jan 22, 2017 at 3:04:27 am

Latest Report: Jan 22, 2017 at 2:00 am


Visibility: N/A

Pressure: 29.83 "Hg

Humidity: 84%

Dew Point: 75 °F

Location of FortalezaLocation

Past Weather in Fortaleza — Graph

°F

Fortaleza Temperature Yesterday

Maximum temperature yesterday: 86 °F (at 10:00 am)
Minimum temperature yesterday: 77 °F (at 4:00 am)
Average temperature yesterday: 82 °F

High & Low Weather Summary for the Past Weeks

 TemperatureHumidityPressure
High86 °F (Jan 7, 10:00 am)100% (Jan 8, 9:00 am)29.95 "Hg (Jan 8, 9:00 am)
Low73 °F (Jan 8, 9:00 am)59% (Jan 7, 1:00 pm)29.74 "Hg (Jan 14, 5:00 pm)
Average81 °F80%29.84 "Hg
* Reported Jan 7 2:00 am — Jan 22 2:00 am, Fortaleza, Weather by CustomWeather, © 2017

Note: Actual official high and low records may vary slightly from our data, if they occured in-between our weather recording intervals... More about our weather records

Advertising

Fortaleza Weather History for the Previous 24 Hours

Scroll right to see more
 ConditionsComfort  
Time TempWeatherWind HumidityBarometerVisibility
2:00 am
Sun, Jan 22
81 °FPassing clouds.8 mph84%29.83 "HgN/A
1:00 am81 °FPassing clouds.7 mph79%29.83 "HgN/A
12:00 am81 °FPassing clouds.8 mph84%29.86 "HgN/A
11:00 pm
Sat, Jan 21
81 °FPassing clouds.8 mph84%29.86 "HgN/A
10:00 pm81 °FPassing clouds.7 mph84%29.89 "HgN/A
9:00 pm81 °FPassing clouds.6 mph84%29.86 "HgN/A
8:00 pm81 °FPassing clouds.6 mph79%29.86 "HgN/A
7:00 pm81 °FPassing clouds.6 mph79%29.83 "HgN/A
6:00 pm82 °FPassing clouds.7 mph74%29.83 "HgN/A
5:00 pm84 °FPassing clouds.8 mph70%29.83 "HgN/A
4:00 pm84 °FSunny.12 mph66%29.80 "Hg10 mi
3:00 pm86 °FPassing clouds.9 mph62%29.83 "HgN/A
2:00 pm86 °FPassing clouds.13 mph59%29.83 "HgN/A
1:00 pm86 °FPassing clouds.12 mph62%29.86 "HgN/A
12:00 pm86 °FPassing clouds.14 mph66%29.89 "HgN/A
11:00 am86 °FScattered clouds.15 mph62%29.92 "HgN/A
10:00 am86 °FScattered clouds.16 mph66%29.92 "HgN/A
9:00 am82 °FScattered clouds.12 mph74%29.92 "HgN/A
8:00 am81 °FScattered clouds.12 mph79%29.92 "HgN/A
7:00 am79 °FPartly sunny.7 mph84%29.92 "HgN/A
6:00 am77 °FBroken clouds.6 mph83%29.89 "HgN/A
5:00 am77 °FPassing clouds.8 mph83%29.86 "HgN/A
4:00 am77 °FPassing clouds.7 mph89%29.83 "HgN/A
3:00 am79 °FPassing clouds.6 mph84%29.83 "HgN/A
Weather by CustomWeather, © 2017

See weather overviewHow to use our weather pages